Dewpoint
42 38 34 30 34 29 26 26 24 31 35 35 33 31 30 32 32 32 32 31 30 30 30 34 38 39 40 42 44 45 47 51 52 51 54 56 57 59 60 62 62 62 63 63
39 35 34 32 32 32 32 29 27 31 35 35 31 28 28 29 29 28 27 29 30 31 32 35 37 39 40 41 42 43 45 48 51 55 56 57 58 59 60 63 62 62 62 62
33 33 35 35 35 35 34 31 28 29 32 33 28 22 21 25 28 30 31 31 32 32 32 35 36 38 39 39 39 39 41 44 46 49 57 60 60 60 55 54 54 53 57 61
33 35 35 35 33 33 30 32 34 33 31 23 29 21 24 24 24 25 27 29 30 33 35 35 35 35 36 37 37 37 38 40 42 45 48 49 50 49 47 47 48 49 50 52
34 35 35 35 33 34 31 35 33 32 31 30 29 28 23 25 24 24 26 31 33 35 34 34 34 33 33 35 36 35 35 36 38 40 43 44 44 44 42 42 42 43 44 44
35 40 38 34 37 36 37 34 33 33 31 28 24 24 15 20 21 21 27 31 33 33 33 33 32 31 30 32 32 32 31 31 33 33 36 36 36 33 33 33 33 34 34 34
36 36 39 39 37 39 37 32 30 27 29 22 24 22 20 20 22 25 25 29 33 33 32 31 30 29 28 28 28 26 27 27 29 29 27 29 31 31 29 27 29 29 30 30
32 31 35 38 34 34 36 31 26 19 17 17 28 23 20 26 27 25 31 31 33 32 31 30 28 27 25 25 25 24 23 24 26 27 26 24 24 25 26 26 26 27 27 27
29 27 35 35 34 32 34 34 31 28 32 25 20 20 22 29 28 29 31 32 32 31 30 28 26 25 23 22 22 21 20 22 22 24 24 22 21 22 22 23 23 24 25 23
28 27 34 36 37 35 31 31 31 32 22 18 15 15 15 23 26 28 30 31 31 31 28 26 24 23 23 20 19 19 19 19 20 20 22 20 19 19 20 20 21 22 22 23
29 27 32 37 34 30 31 32 30 30 30 20 16 11 19 19 23 23 26 30 31 30 27 24 22 22 23 19 18 17 17 18 18 19 19 19 18 18 18 19 19 20 21 22
31 27 25 29 29 32 32 29 28 26 25 27 26 22 24 24 27 29 28 31 32 30 27 24 21 19 21 19 16 16 16 17 17 17 16 17 16 17 17 17 18 20 20 22
32 32 28 30 31 31 30 29 29 28 28 25 24 20 25 26 27 28 30 31 31 29 26 23 20 17 16 15 13 12 13 15 16 16 16 16 16 15 16 17 18 19 20 21
37 29 27 18 22 27 27 27 28 28 29 26 25 23 21 22 23 26 30 32 31 29 26 23 21 17 15 14 11 12 13 13 15 14 14 16 16 15 16 17 18 20 20 20
33 30 25 25 24 24 25 25 26 28 29 26 23 21 22 23 24 24 25 31 31 28 26 24 21 19 15 12 13 12 12 14 13 13 14 13 15 15 16 18 19 20 20 20
32 30 23 29 25 25 25 25 24 25 25 25 24 25 28 28 28 28 28 29 31 29 27 24 21 20 16 15 15 13 11 12 12 12 13 13 14 15 16 16 17 18 19 19
28 31 30 22 22 24 23 24 23 23 23 24 22 24 26 25 25 26 27 29 32 31 28 25 23 20 18 13 10 10 11 12 13 14 14 14 14 14 15 16 16 17 18 19
23 28 32 23 26 15 18 14 17 21 21 24 25 25 26 27 28 29 29 31 32 31 28 25 23 19 13 10 11 13 15 14 14 12 11 12 13 14 15 15 16 16 18 19
27 24 26 21 20 16 14 13 16 17 16 20 21 23 24 25 27 27 30 30 32 33 29 25 21 13 10 12 14 16 17 18 17 12 10 11 13 14 14 15 15 17 17 18
26 27 25 24 18 13 12 16 18 15 15 16 17 17 19 21 23 25 27 30 30 25 23 18 13 13 15 16 17 16 16 16 13 11 10 11 13 14 14 14 15 17 17 17
26 27 24 23 21 21 19 18 26 20 14 25 23 23 24 24 25 24 23 20 19 16 14 14 15 15 15 16 17 16 15 13 12 9 10 12 12 13 14 15 16 17 18 18
21 23 23 24 20 17 22 20 19 18 21 23 25 25 25 27 21 20 18 16 15 15 15 14 13 12 14 17 17 14 10 8 9 10 11 12 13 13 14 15 16 17 18 18
21 21 19 20 20 20 21 23 23 24 24 24 23 24 22 21 19 18 16 16 15 15 14 13 10 10 12 14 15 11 7 8 8 9 10 11 12 13 14 14 15 15 16 15
26 30 25 24 25 23 23 24 20 20 20 20 17 18 21 20 17 17 16 15 13 13 12 12 11 9 8 9 8 7 6 6 7 9 10 11 11 12 12 11 12 13 12 12
27 32 28 27 27 29 29 28 26 19 16 14 15 17 18 18 15 15 14 12 11 11 11 12 10 9 6 5 4 4 4 5 9 9 9 10 9 9 8 8 8 8 9 10
29 27 26 24 28 31 26 22 19 18 15 14 14 14 16 17 14 13 13 12 11 10 11 10 7 5 4 3 2 1 1 3 7 9 8 5 6 4 2 2 2 0 4 5
Lifted_Index
6 6 7 7 7 7 7 6 5 6 6 6 6 6 6 7 7 7 7 7 7 7 8 8 9 10 10 10 10 9 8 7 6 4 3 2 1 1 0 -0 -1 -1 -1 -1
6 6 7 7 7 7 7 6 6 6 6 6 6 6 6 7 7 7 7 7 7 7 8 8 9 9 9 10 10 9 9 8 6 4 3 2 1 1 0 0 -0 -0 -0 -1
6 6 7 7 7 6 6 6 6 6 6 6 5 5 5 6 7 7 7 7 7 8 8 8 9 9 9 9 9 9 9 8 6 5 3 2 2 1 1 1 1 1 1 0
6 6 6 6 6 6 5 5 5 5 5 5 5 4 4 5 6 6 7 7 8 8 8 8 8 8 8 9 9 8 8 7 6 5 4 3 3 3 3 3 4 3 3 3
6 6 6 6 5 5 5 5 5 5 5 4 4 4 4 6 6 6 7 7 8 8 8 8 8 8 8 8 8 8 8 7 7 6 6 5 5 5 5 6 6 6 6 6
5 5 5 5 5 4 4 4 4 4 4 4 4 4 5 6 7 6 6 7 8 8 8 8 8 8 8 8 8 8 8 8 8 8 8 8 8 8 7 7 7 8 7 7
4 5 5 4 4 4 4 4 3 3 3 3 5 5 5 7 7 6 6 7 7 8 8 8 8 7 7 8 8 8 9 9 10 10 10 10 10 9 9 9 8 9 9 9
4 4 4 4 4 3 3 3 3 2 2 4 5 6 6 7 6 6 6 6 7 7 7 7 7 7 7 8 8 9 9 10 10 11 11 11 11 10 10 10 10 10 10 10
4 4 4 4 4 4 4 4 3 3 3 3 5 6 7 7 6 6 6 6 6 6 6 7 7 7 8 8 9 10 10 11 11 11 11 11 11 11 10 10 10 10 11 11
5 4 4 4 4 4 4 4 3 3 3 2 4 6 7 7 7 6 6 5 5 5 6 6 7 7 8 9 10 10 11 11 11 11 10 10 10 10 10 10 10 11 11 11
4 4 4 4 3 3 3 3 3 3 3 3 3 5 6 7 7 6 6 5 5 5 6 6 6 7 8 9 10 10 11 10 10 10 9 9 9 9 10 10 10 11 11 11
2 3 4 4 3 3 2 2 2 2 3 3 4 5 6 7 6 6 5 5 5 6 6 6 6 6 7 8 9 10 10 10 9 8 8 8 8 8 9 10 11 12 12 12
1 2 3 3 3 2 2 2 2 2 3 4 4 5 6 6 5 5 5 5 5 5 6 6 6 6 6 8 9 9 9 9 8 7 7 6 7 8 9 11 12 12 12 12
1 1 2 2 2 2 3 2 2 2 3 4 5 6 6 5 5 4 4 5 5 5 6 6 6 6 6 7 8 8 8 7 7 6 5 5 7 8 11 12 13 13 13 13
1 2 2 2 2 2 3 3 3 3 3 4 5 6 5 5 4 4 4 4 5 5 5 5 5 5 6 7 7 7 6 6 5 4 4 6 8 10 12 13 13 14 13 13
1 2 2 2 2 2 4 4 4 4 4 4 5 6 5 4 4 4 4 4 5 5 5 5 5 5 5 6 6 6 5 5 5 4 5 8 10 12 13 13 14 14 14 14
1 2 2 2 2 3 5 5 5 5 4 4 5 5 5 5 4 4 4 4 4 4 4 4 4 4 4 5 6 6 6 6 6 6 7 9 11 13 13 14 14 14 14 14
2 2 2 2 2 3 6 6 5 5 5 5 5 5 5 4 4 4 4 4 4 3 3 4 4 4 4 6 6 6 6 7 7 7 10 12 13 13 14 14 14 14 14 14
2 2 2 2 2 4 6 6 5 5 5 5 5 5 5 4 4 4 4 3 3 3 3 3 4 4 5 7 7 7 7 7 8 10 13 14 14 14 14 14 14 14 15 14
2 1 2 2 2 4 6 6 5 4 5 5 5 5 5 4 3 4 4 3 3 3 3 3 4 5 7 8 8 7 7 8 10 13 15 16 15 15 15 15 15 15 15 15
2 1 2 2 2 4 6 6 4 4 4 5 5 5 4 4 3 4 4 4 3 3 3 3 5 6 8 9 8 8 8 10 13 16 16 16 16 16 16 16 16 16 16 16
1 1 2 2 2 4 6 5 4 4 4 5 4 4 4 3 3 3 3 3 3 3 3 4 6 8 9 9 9 9 10 13 16 17 16 16 16 16 16 16 16 17 16 16
1 1 1 1 2 4 5 4 4 3 4 4 3 3 2 2 2 2 2 2 2 3 4 6 8 9 9 10 10 11 14 16 17 17 16 16 17 17 17 17 17 17 17 17
1 1 1 1 2 3 3 3 3 2 2 2 2 2 1 1 1 1 1 1 2 3 6 8 9 10 10 11 13 15 16 17 17 17 16 17 17 17 18 18 18 18 18 17
1 0 0 1 1 2 2 2 2 2 1 1 2 2 2 1 1 2 2 2 3 5 8 9 10 11 12 14 16 17 18 18 17 17 17 17 17 18 18 18 18 19 19 19
1 0 0 1 1 1 2 2 1 1 1 2 2 2 2 2 2 2 2 3 4 7 9 10 11 12 14 15 16 17 18 18 17 17 17 17 18 18 18 18 18 19 20 20